Wetbulb
44.15 44.84 45.30 45.44 45.44 44.75 39.74 33.09 24.32 36.05 41.24 28.27 28.12 24.23 27.07 32.00 29.54 33.14 32.01 31.96 31.19 29.45 30.09 28.46 29.49 30.13 33.22 38.31 37.84 34.16 36.71 33.84 29.75 31.92 37.88 40.91 37.34 34.78 34.52 29.23 27.81 31.47 30.59 30.76
44.52 45.03 45.67 45.64 45.28 43.90 38.00 30.12 29.28 36.64 37.82 21.35 25.01 29.22 28.74 31.20 30.40 30.79 31.30 29.71 31.78 32.60 29.59 26.08 30.54 31.88 37.69 38.74 37.17 35.36 36.37 32.15 28.36 30.00 35.38 37.41 35.22 36.26 35.65 35.27 33.76 30.44 28.15 31.46
44.15 44.95 45.64 45.85 45.57 44.75 38.09 29.24 21.77 27.57 34.38 33.24 27.92 26.74 26.72 27.38 32.76 31.87 33.51 31.72 32.84 30.91 28.96 32.04 29.08 30.61 35.89 38.14 38.31 40.47 38.67 32.54 29.26 26.64 28.85 32.96 31.16 34.08 35.68 35.25 30.95 30.98 32.14 33.91
43.66 44.88 45.83 46.43 45.99 45.22 36.50 32.89 25.43 28.16 21.13 28.64 28.50 28.90 28.23 27.24 27.59 32.78 33.60 30.54 29.52 29.25 26.92 28.29 28.55 32.29 33.29 35.78 38.69 38.30 36.83 29.57 31.31 32.35 33.66 33.98 33.17 33.35 34.09 33.05 33.38 31.20 33.04 33.80
43.58 44.78 45.75 46.22 46.00 44.15 34.76 26.39 26.64 28.83 28.25 28.62 27.31 27.88 26.26 27.07 27.68 28.91 29.46 27.27 28.93 30.05 27.61 29.61 28.11 30.75 31.36 31.12 36.22 35.75 36.11 29.69 30.97 30.19 33.75 33.45 30.65 33.61 35.07 35.16 35.05 35.22 35.84 35.21
43.43 44.53 45.45 46.19 46.19 43.29 36.83 33.71 33.11 31.43 27.12 26.35 25.73 26.24 27.93 28.20 29.85 30.72 32.34 30.29 28.84 28.59 31.54 35.24 36.35 36.69 35.85 35.29 33.08 33.07 34.18 32.08 29.79 25.49 31.76 30.73 26.90 31.65 34.09 35.01 37.64 36.93 32.53 37.67
43.16 44.32 45.55 45.83 46.07 43.99 39.09 35.65 34.76 29.85 23.42 25.59 25.76 27.14 28.48 27.49 28.33 26.67 30.29 31.78 29.77 34.34 39.76 39.43 37.88 36.55 35.95 35.84 35.72 36.73 32.29 30.99 30.63 26.80 29.03 19.22 33.77 40.08 39.37 37.21 37.64 38.57 38.35 40.45
42.68 44.09 44.86 45.48 45.69 46.30 40.27 39.25 35.54 31.09 24.01 27.06 26.90 27.60 27.66 29.02 30.37 28.44 29.13 32.58 35.53 38.67 38.28 31.83 29.16 29.45 30.54 32.16 34.51 34.73 35.82 32.40 28.05 24.66 25.02 28.43 33.26 37.27 36.93 36.03 34.42 39.20 38.58 40.89
42.38 43.76 44.42 45.25 45.58 46.26 41.87 39.48 40.38 35.56 28.75 26.38 30.38 27.89 28.83 26.54 27.23 28.90 31.07 36.78 38.71 39.07 33.39 30.91 25.00 23.00 26.64 26.63 30.59 36.05 35.15 35.02 30.29 27.17 22.24 20.02 31.52 38.95 41.03 41.07 30.82 38.89 39.50 40.19
42.08 43.19 44.28 44.70 45.55 46.35 43.80 40.25 40.82 36.78 30.64 31.35 32.38 28.46 28.81 31.66 30.48 28.82 30.90 32.70 33.45 36.33 31.01 27.92 26.13 25.19 30.14 24.79 26.12 27.97 29.05 30.64 27.52 26.33 24.31 28.10 35.12 37.66 41.14 29.57 30.60 38.90 39.09 38.81
41.24 42.52 43.77 44.29 45.22 46.09 44.86 41.20 41.39 37.00 32.65 33.15 35.01 34.62 31.21 31.75 32.27 28.58 31.78 30.33 32.55 32.16 28.64 28.10 28.83 27.41 29.06 28.63 30.99 29.34 28.56 27.11 26.80 27.49 24.08 21.13 36.08 37.60 33.23 35.33 36.82 36.72 36.11 36.45
40.93 42.30 43.31 43.96 44.94 45.79 46.14 39.35 41.69 42.05 36.04 35.21 38.76 38.06 38.33 36.65 36.28 33.25 33.14 31.80 32.82 33.15 29.41 30.62 32.11 29.13 29.77 28.84 25.55 34.28 28.72 32.35 30.51 30.04 29.72 35.13 36.18 34.84 35.82 37.58 34.71 34.21 34.51 35.06
40.93 42.03 43.29 43.70 44.89 45.95 45.75 40.68 41.05 39.40 34.31 34.33 35.20 33.82 38.85 40.91 39.80 41.14 32.00 33.88 36.89 35.90 37.81 34.44 31.81 28.39 32.49 27.64 28.96 31.23 34.85 35.93 32.28 32.81 34.00 34.21 34.05 33.97 34.31 34.28 32.59 32.52 32.76 33.37
40.77 41.97 43.02 44.06 45.06 45.70 45.47 40.60 41.66 39.64 35.96 28.87 30.46 37.60 35.65 39.66 40.25 39.69 39.84 37.96 39.00 39.04 38.37 32.93 30.19 28.03 35.20 31.69 33.03 31.93 32.98 34.27 30.19 31.23 33.05 34.30 33.34 33.87 33.41 32.16 32.31 31.04 29.99 29.42
40.85 42.10 43.12 44.23 45.13 45.83 45.54 42.86 42.29 41.99 36.43 29.91 30.99 35.13 37.56 38.70 38.25 37.44 38.13 37.20 35.86 34.82 32.37 31.76 29.76 34.34 34.19 34.76 35.04 29.53 31.58 27.71 26.87 26.37 31.07 31.38 30.67 31.59 31.65 29.09 27.87 28.02 28.37 26.54
41.21 41.93 43.36 44.19 45.33 46.00 40.45 32.89 41.37 42.57 41.55 34.44 26.73 34.43 34.51 36.87 36.76 36.18 35.82 36.27 35.58 35.79 33.61 31.89 34.66 36.43 35.53 30.31 28.89 30.22 32.23 31.47 30.71 29.22 32.34 31.98 31.33 30.94 30.70 28.04 26.33 25.83 25.06 24.87
41.45 42.57 43.44 44.49 45.48 42.90 36.65 35.15 39.07 43.17 42.26 34.11 27.87 27.99 33.54 37.12 35.51 35.24 35.80 37.17 36.90 36.03 34.50 34.10 34.60 35.00 36.40 30.85 27.62 28.69 29.70 29.64 29.77 31.55 33.41 29.48 30.00 27.94 29.31 27.44 26.59 26.25 24.43 23.94
42.25 43.10 44.16 45.10 45.84 43.89 38.24 42.11 43.91 43.18 38.35 35.69 26.53 26.44 30.15 38.99 34.04 32.91 38.32 34.03 36.05 36.17 35.54 35.71 33.42 34.99 34.10 27.95 26.56 26.20 27.18 28.65 27.28 28.46 31.46 29.64 29.21 27.88 26.65 27.53 26.76 24.67 23.17 22.92
42.76 44.13 45.06 43.83 39.36 34.79 38.10 44.60 44.37 43.63 37.73 29.06 28.93 25.01 23.90 38.36 35.54 35.56 35.37 36.23 29.63 35.65 33.06 34.48 34.70 30.39 26.17 24.92 24.85 23.43 23.14 22.82 23.08 26.73 26.98 27.13 25.25 23.98 23.43 23.52 23.76 22.96 22.45 21.83
43.15 42.77 37.60 30.85 35.06 43.97 43.65 35.92 33.75 34.46 35.98 35.45 29.43 31.53 27.30 33.64 32.89 32.04 32.80 33.52 31.36 29.20 31.62 33.49 30.45 23.19 23.87 23.98 23.61 22.97 22.60 22.10 23.58 24.83 21.89 22.49 23.22 22.32 21.38 20.67 21.02 21.28 20.31 19.50
39.84 31.98 32.16 38.32 43.47 38.94 34.25 30.08 30.37 29.95 27.59 31.23 31.81 31.62 29.71 36.15 30.77 31.61 34.07 30.05 31.43 25.52 29.85 29.44 24.14 20.58 21.58 23.45 22.01 22.25 21.95 21.35 20.85 21.45 21.81 22.30 21.93 21.70 21.36 19.72 18.97 18.12 17.57 16.12
36.50 38.72 41.29 39.92 35.91 32.52 29.23 27.45 29.41 27.04 25.35 29.08 29.13 31.01 34.78 35.35 35.50 31.73 31.94 30.33 30.78 25.66 31.32 26.11 18.82 18.67 21.78 21.80 20.73 20.25 20.57 19.80 18.78 19.18 18.18 18.77 19.14 19.27 18.61 17.55 16.29 15.67 14.84 13.82
41.27 36.62 32.30 32.27 27.84 26.13 22.57 20.07 24.57 24.33 27.14 30.27 32.43 31.59 33.96 34.23 34.63 31.78 31.41 27.98 27.34 31.57 22.24 15.56 16.61 20.05 21.12 20.89 19.99 18.39 18.74 17.82 16.81 16.05 16.10 15.25 13.36 13.32 14.05 12.04 12.16 12.09 10.91 11.40
30.78 27.88 20.44 24.18 19.77 18.12 18.68 23.04 26.34 27.89 30.07 32.86 33.16 31.05 31.81 31.96 30.45 28.45 26.73 27.09 30.21 21.04 17.25 12.90 17.52 19.07 19.34 19.39 18.81 16.51 13.83 13.28 12.20 11.08 11.53 11.04 10.13 9.39 9.68 9.52 9.66 9.08 8.66 9.13
25.00 24.42 16.60 13.28 18.30 20.02 21.52 24.91 28.13 28.09 30.31 32.25 31.06 29.22 29.54 25.07 24.83 21.71 24.28 21.22 14.25 14.50 12.96 13.70 18.16 19.15 18.20 16.88 16.07 14.30 12.15 9.70 9.39 10.10 9.18 8.55 9.50 9.38 8.79 9.31 9.77 9.46 8.56 8.72
22.92 19.23 18.40 20.52 18.37 18.75 21.90 23.25 25.12 27.55 28.89 31.26 29.13 23.35 20.30 17.87 17.05 16.39 11.75 16.14 13.01 11.40 13.60 17.27 17.96 15.82 14.92 14.34 13.64 11.78 11.03 10.29 9.88 10.29 10.34 9.36 8.23 8.79 9.09 9.20 8.32 7.35 7.23 6.53
19.48 16.28 17.09 14.60 13.23 15.05 19.60 21.35 22.45 27.04 26.75 22.80 23.02 18.30 16.26 18.80 13.36 10.59 11.58 10.46 11.30 13.14 15.57 16.41 16.44 14.64 12.86 12.51 12.89 12.22 12.21 12.01 11.94 11.43 11.36 10.70 11.51 11.75 11.34 9.72 10.77 10.77 9.58 8.36
MSLP
1019.44 1019.36 1019.21 1019.03 1018.83 1018.53 1018.69 1019.24 1019.12 1018.57 1018.07 1018.52 1018.85 1018.67 1018.02 1016.85 1015.52 1014.57 1014.02 1013.47 1012.76 1012.08 1011.46 1010.65 1009.90 1009.60 1009.39 1009.28 1008.80 1008.20 1007.89 1007.00 1005.87 1004.92 1004.37 1004.22 1004.19 1004.31 1004.52 1004.66 1004.80 1004.41 1003.96 1003.10
1019.20 1019.05 1018.91 1018.80 1018.76 1018.64 1019.28 1019.66 1019.42 1018.78 1018.62 1019.16 1018.86 1018.16 1017.65 1016.81 1015.79 1015.04 1014.42 1013.82 1013.40 1012.73 1012.24 1011.70 1010.94 1010.37 1009.90 1009.74 1009.30 1008.92 1008.46 1007.79 1006.59 1005.86 1005.54 1004.99 1004.89 1004.77 1004.58 1004.57 1004.60 1004.04 1003.99 1003.33
1018.94 1018.83 1018.61 1018.55 1018.58 1018.73 1019.44 1020.01 1019.97 1019.78 1019.33 1019.47 1019.22 1018.46 1017.64 1016.73 1015.81 1015.32 1014.76 1014.44 1013.73 1013.22 1012.51 1012.10 1011.57 1011.04 1010.42 1010.07 1009.69 1009.30 1008.90 1008.35 1007.68 1006.84 1006.35 1006.20 1005.62 1005.20 1005.13 1004.69 1004.41 1003.95 1003.54 1003.43
1018.57 1018.53 1018.32 1018.10 1018.15 1018.59 1019.38 1020.08 1020.51 1020.52 1020.13 1019.51 1019.10 1018.64 1017.97 1017.04 1016.17 1015.45 1014.92 1014.57 1014.50 1014.20 1013.29 1012.41 1011.86 1011.38 1010.80 1010.21 1010.03 1009.81 1009.43 1008.93 1008.37 1007.43 1007.02 1006.70 1006.12 1005.54 1005.28 1004.87 1004.52 1004.19 1004.06 1003.89
1018.29 1018.14 1017.99 1017.79 1017.88 1018.55 1019.41 1020.16 1020.43 1020.59 1020.11 1019.56 1019.00 1018.41 1017.73 1017.24 1016.49 1015.90 1015.13 1014.92 1014.48 1014.21 1013.79 1013.25 1012.46 1011.85 1011.34 1010.68 1010.25 1009.87 1009.98 1009.41 1008.83 1007.90 1007.22 1006.84 1006.14 1005.58 1005.28 1005.08 1004.83 1004.70 1004.51 1004.63
1017.97 1017.85 1017.70 1017.59 1017.73 1018.12 1019.22 1019.79 1020.09 1020.04 1019.88 1019.45 1019.02 1018.29 1017.64 1017.06 1016.64 1015.71 1015.28 1015.14 1014.70 1013.78 1013.28 1012.92 1012.10 1011.57 1011.20 1010.83 1010.74 1010.37 1010.06 1009.60 1008.90 1008.01 1007.41 1006.78 1006.21 1005.29 1005.01 1005.20 1005.32 1005.33 1005.28 1005.78
1017.56 1017.47 1017.39 1017.33 1017.50 1017.64 1018.44 1019.04 1019.46 1019.91 1019.56 1019.23 1018.60 1018.02 1017.64 1017.16 1016.79 1016.48 1015.31 1015.18 1014.72 1013.49 1012.82 1011.87 1010.76 1010.62 1010.47 1010.33 1010.05 1010.26 1010.16 1009.87 1009.19 1008.18 1007.51 1006.88 1006.22 1005.18 1004.95 1005.33 1005.90 1006.24 1006.39 1006.52
1017.13 1017.10 1017.08 1017.07 1017.11 1017.38 1018.15 1018.58 1019.08 1019.40 1019.19 1018.61 1018.12 1017.72 1017.44 1017.00 1016.55 1016.10 1015.32 1014.66 1014.08 1013.63 1012.97 1011.91 1011.02 1010.36 1010.17 1009.55 1009.59 1009.64 1009.87 1009.88 1009.23 1008.50 1007.83 1007.07 1006.22 1006.12 1006.07 1006.06 1006.86 1007.24 1007.51 1007.44
1016.66 1016.72 1016.73 1016.72 1016.73 1016.76 1017.54 1017.97 1018.46 1019.01 1018.92 1017.94 1017.35 1017.24 1016.99 1016.86 1016.41 1015.86 1015.11 1014.37 1013.97 1013.68 1013.26 1012.67 1011.78 1010.62 1010.20 1009.58 1009.46 1009.22 1009.64 1009.76 1009.61 1009.02 1008.28 1007.44 1007.16 1006.94 1006.85 1006.83 1007.70 1008.32 1008.46 1008.45
1016.16 1016.26 1016.29 1016.30 1016.32 1016.18 1016.64 1017.21 1017.75 1018.51 1018.39 1017.47 1017.14 1016.91 1016.66 1016.43 1016.25 1016.02 1015.45 1015.04 1014.37 1014.04 1013.60 1012.91 1012.13 1011.27 1010.60 1010.06 1009.61 1009.66 1009.91 1009.78 1009.58 1009.40 1009.06 1008.22 1008.05 1007.81 1007.51 1008.32 1009.88 1009.63 1009.73 1009.98
1015.71 1015.80 1015.87 1015.86 1015.83 1015.71 1015.95 1016.29 1016.86 1017.50 1017.63 1017.06 1016.63 1016.43 1016.37 1016.18 1016.08 1016.01 1015.62 1015.33 1015.12 1014.51 1013.98 1013.52 1012.56 1011.93 1011.17 1010.66 1010.09 1010.18 1010.19 1010.16 1010.01 1010.02 1010.01 1009.65 1009.33 1008.65 1008.76 1010.25 1010.61 1010.78 1011.03 1011.29
1015.19 1015.34 1015.38 1015.39 1015.38 1015.31 1015.44 1015.76 1016.17 1016.66 1017.15 1016.82 1016.47 1016.18 1015.86 1015.63 1015.47 1015.90 1015.83 1015.76 1015.62 1015.39 1014.98 1014.36 1013.37 1012.47 1011.75 1011.19 1010.47 1010.50 1010.72 1010.91 1010.83 1010.74 1010.73 1010.87 1010.87 1010.80 1010.87 1011.10 1011.67 1012.34 1012.37 1012.73
1014.59 1014.73 1014.79 1014.85 1014.84 1014.78 1014.97 1015.17 1015.72 1016.53 1016.80 1016.54 1016.20 1015.26 1014.52 1014.76 1014.99 1015.23 1015.88 1015.61 1015.19 1015.19 1015.24 1014.98 1014.28 1013.12 1012.37 1011.64 1011.28 1011.32 1011.28 1011.54 1011.44 1011.25 1011.42 1011.86 1012.29 1012.53 1012.56 1012.94 1013.19 1013.76 1013.83 1014.04
1013.97 1014.11 1014.18 1014.28 1014.33 1014.24 1014.42 1014.79 1015.17 1015.93 1016.33 1016.28 1015.03 1014.47 1014.28 1013.65 1014.08 1014.57 1014.75 1015.08 1015.22 1015.23 1015.17 1015.11 1014.74 1013.89 1012.90 1012.18 1012.01 1011.99 1012.46 1012.33 1012.46 1012.39 1012.63 1012.96 1013.56 1013.99 1014.31 1014.59 1014.66 1014.92 1015.30 1015.46
1013.34 1013.45 1013.55 1013.65 1013.70 1013.62 1013.74 1014.27 1014.46 1014.93 1015.58 1015.66 1014.92 1014.25 1013.14 1013.19 1013.47 1014.08 1014.60 1015.06 1015.32 1015.60 1015.60 1015.12 1014.43 1013.46 1013.00 1012.30 1012.18 1012.91 1013.65 1014.01 1013.75 1013.77 1013.85 1014.00 1015.01 1015.52 1015.76 1015.84 1016.20 1016.28 1016.23 1016.39
1012.63 1012.73 1012.84 1013.00 1013.06 1013.11 1013.66 1014.35 1014.43 1014.49 1014.99 1015.49 1015.09 1013.87 1013.27 1013.18 1013.48 1013.99 1014.46 1014.82 1015.30 1015.38 1015.18 1014.72 1013.99 1013.48 1012.87 1012.93 1013.27 1014.24 1014.69 1015.13 1015.30 1015.04 1014.92 1014.94 1015.62 1016.09 1016.93 1017.09 1017.26 1017.36 1017.31 1017.48
1012.00 1012.06 1012.23 1012.33 1012.32 1012.73 1013.34 1013.28 1013.06 1013.76 1014.85 1015.33 1014.86 1013.95 1013.31 1013.20 1013.66 1014.15 1014.49 1014.66 1014.62 1014.75 1014.63 1014.08 1013.61 1013.14 1013.07 1013.69 1014.40 1015.45 1015.95 1016.16 1016.24 1016.11 1015.96 1015.95 1016.32 1017.07 1017.55 1017.59 1017.73 1017.91 1018.24 1018.47
1011.23 1011.39 1011.49 1011.54 1011.65 1012.29 1012.89 1012.81 1013.04 1013.74 1014.61 1014.90 1014.71 1013.90 1013.43 1012.84 1013.15 1013.51 1013.71 1013.92 1014.16 1014.06 1013.84 1013.57 1013.41 1013.42 1013.74 1014.61 1015.88 1016.73 1017.09 1017.19 1017.25 1017.17 1016.84 1016.88 1017.38 1017.74 1017.95 1018.06 1018.12 1018.35 1018.81 1019.21
1010.55 1010.63 1010.64 1010.91 1011.49 1012.27 1012.35 1012.61 1013.23 1013.54 1014.18 1014.07 1014.06 1013.61 1013.18 1012.58 1012.60 1012.85 1013.19 1013.38 1013.64 1013.48 1013.30 1013.39 1013.72 1014.20 1015.13 1016.27 1017.04 1017.86 1018.21 1018.22 1018.16 1018.14 1018.07 1018.13 1018.27 1018.68 1018.92 1019.02 1019.09 1019.20 1019.65 1020.03
1009.99 1010.27 1010.37 1010.91 1011.46 1011.60 1012.22 1013.57 1013.72 1013.74 1013.62 1013.52 1013.26 1012.87 1012.75 1012.59 1012.05 1012.51 1012.73 1012.78 1012.73 1012.86 1012.93 1013.42 1013.99 1015.44 1017.12 1017.94 1018.53 1019.12 1019.48 1019.58 1019.24 1019.03 1019.20 1019.18 1019.20 1019.66 1019.84 1020.04 1020.38 1020.56 1020.89 1021.28
1009.04 1009.57 1010.02 1010.51 1010.76 1011.25 1012.18 1012.85 1013.10 1013.44 1013.37 1012.82 1012.12 1012.07 1012.04 1012.23 1012.21 1012.18 1012.13 1012.27 1012.33 1012.49 1012.70 1013.47 1014.86 1016.37 1017.85 1018.97 1019.56 1020.12 1020.49 1020.77 1020.84 1020.78 1020.78 1020.55 1020.59 1020.66 1020.72 1021.14 1021.62 1022.01 1022.24 1022.47
1007.97 1008.48 1009.39 1010.14 1010.50 1011.16 1011.90 1012.31 1012.56 1012.50 1011.96 1011.79 1011.64 1011.57 1011.63 1011.87 1012.03 1012.14 1012.02 1011.73 1012.01 1012.08 1012.87 1014.13 1016.07 1018.02 1019.07 1019.87 1020.61 1021.22 1021.65 1021.85 1021.85 1021.80 1021.90 1021.95 1022.01 1022.11 1022.24 1022.65 1023.00 1023.32 1023.58 1023.82
1006.67 1008.16 1009.20 1009.88 1010.75 1011.11 1011.44 1011.59 1011.62 1011.62 1011.30 1011.23 1011.26 1011.31 1011.51 1012.02 1012.14 1012.11 1011.66 1011.73 1012.06 1012.54 1013.92 1016.07 1017.96 1019.19 1020.18 1020.89 1021.59 1022.23 1022.66 1022.82 1022.88 1023.07 1023.25 1023.39 1023.59 1023.59 1023.86 1024.36 1024.78 1024.79 1024.91 1025.26
1006.89 1008.39 1010.03 1010.65 1011.54 1011.65 1011.51 1011.11 1010.94 1011.22 1011.05 1010.96 1011.16 1011.62 1011.71 1012.12 1012.45 1012.54 1012.35 1012.88 1012.94 1014.38 1016.27 1017.99 1019.39 1020.45 1021.33 1021.98 1022.51 1022.97 1023.58 1023.93 1024.20 1024.49 1024.54 1024.75 1025.01 1025.20 1025.46 1025.85 1025.96 1025.95 1026.13 1026.16
1008.11 1009.02 1011.18 1011.98 1012.41 1012.63 1012.42 1011.97 1011.72 1011.83 1011.54 1011.38 1011.85 1012.29 1012.63 1013.22 1013.61 1014.15 1014.15 1014.60 1015.61 1016.97 1018.46 1019.88 1020.80 1021.63 1022.34 1022.97 1023.48 1024.00 1024.52 1024.97 1025.24 1025.54 1025.87 1026.12 1026.21 1026.45 1026.75 1026.86 1026.83 1026.81 1026.78 1026.70
1009.52 1011.16 1012.73 1013.12 1013.25 1013.49 1013.10 1012.94 1012.74 1012.55 1012.22 1012.23 1012.51 1013.24 1013.98 1015.02 1015.52 1015.94 1016.89 1017.35 1018.19 1019.57 1020.55 1021.30 1022.04 1022.81 1023.45 1023.98 1024.46 1025.01 1025.45 1025.82 1026.15 1026.41 1026.62 1026.77 1026.84 1026.95 1027.16 1027.32 1027.38 1027.37 1027.32 1027.32
1011.41 1013.15 1013.47 1013.93 1014.34 1014.51 1014.33 1013.99 1013.68 1013.36 1013.17 1013.50 1013.75 1014.53 1015.82 1016.41 1017.37 1018.59 1019.37 1019.84 1020.57 1021.21 1021.88 1022.53 1023.06 1023.66 1024.30 1024.79 1025.13 1025.58 1025.95 1026.22 1026.43 1026.68 1026.90 1027.02 1027.12 1027.20 1027.26 1027.44 1027.72 1027.79 1027.89 1027.82
Wind_Speed
7 8 9 8 8 5 6 1 3 3 2 4 1 2 4 7 5 3 4 4 5 5 8 7 8 8 6 10 7 4 3 2 2 3 2 0 3 7 9 5 5 4 6 6
7 9 8 7 5 3 2 1 1 2 3 3 2 4 4 4 5 5 6 4 6 6 4 4 5 6 4 8 6 6 4 1 3 4 2 3 2 1 3 4 1 9 6 2
8 9 10 9 5 7 4 2 4 4 2 2 2 5 4 7 4 4 4 4 4 6 4 1 4 5 3 7 6 12 1 1 3 0 3 2 2 1 1 3 4 4 7 5
8 11 11 11 5 11 4 1 0 1 2 1 3 3 3 8 6 4 6 1 8 7 5 6 3 3 7 6 6 5 4 2 2 7 4 4 5 5 2 3 1 5 2 2
9 11 10 9 10 12 3 4 3 1 2 3 3 2 2 2 6 3 4 5 13 8 3 4 9 10 5 3 5 4 4 1 1 3 5 4 4 6 6 7 4 7 9 7
10 11 10 7 16 9 2 1 0 2 2 2 0 2 3 4 7 4 5 5 13 10 3 10 15 12 11 9 8 3 3 3 3 1 2 6 5 5 8 3 2 2 4 3
10 11 8 7 11 11 3 3 3 3 3 3 4 3 4 9 8 9 13 11 6 4 12 13 11 10 11 10 11 9 4 5 3 3 3 3 5 4 6 8 6 7 3 6
11 10 8 8 5 20 3 3 3 3 3 5 6 11 9 8 7 7 7 9 5 7 6 5 8 1 3 5 9 11 12 3 3 1 3 3 3 3 3 1 2 5 3 6
11 10 9 8 10 8 5 4 3 2 2 6 6 2 3 4 3 4 4 4 4 3 1 1 4 3 4 2 1 7 6 6 3 1 3 1 3 1 5 2 2 4 5 7
11 11 9 9 12 9 7 4 8 3 3 4 4 3 2 2 2 3 3 5 5 3 3 2 2 3 3 3 4 2 2 1 6 5 3 4 5 10 3 3 3 6 8 10
12 13 10 10 12 11 6 2 12 6 3 4 5 5 6 3 1 3 3 4 2 3 2 2 1 2 2 3 2 1 1 2 2 3 3 6 10 2 1 6 8 8 10 10
13 13 12 11 13 12 7 2 9 6 3 2 2 4 5 9 9 2 1 2 3 1 3 3 4 2 3 4 2 3 1 2 3 3 1 4 7 11 10 9 8 6 9 9
13 14 12 13 13 14 8 3 5 2 1 4 4 10 12 9 9 6 5 2 2 3 4 2 3 4 1 2 1 2 1 3 3 3 6 7 10 12 13 12 12 9 10 9
14 15 13 14 13 14 6 4 7 3 2 2 5 1 5 4 9 11 12 7 1 2 2 2 3 4 1 2 3 2 3 5 5 3 4 5 12 10 10 11 10 10 10 11
15 15 15 14 13 15 5 4 7 6 3 2 4 5 7 5 9 11 9 8 7 3 2 3 4 3 2 2 2 2 3 3 3 2 5 4 6 8 9 10 9 9 8 10
16 16 16 15 14 12 5 1 2 7 4 1 3 3 3 5 6 8 8 7 3 3 4 4 3 4 3 1 1 4 5 4 6 2 5 11 10 10 8 8 9 10 11 10
16 16 17 18 17 5 3 3 3 14 5 2 3 3 2 3 4 2 3 7 3 3 2 4 2 2 1 1 2 6 6 6 7 8 3 8 9 5 7 8 10 12 11 11
16 17 18 17 10 9 2 2 14 11 3 3 2 4 2 6 3 3 4 5 3 4 2 2 2 1 0 2 5 4 5 4 9 10 9 10 8 8 9 8 7 10 10 9
17 17 11 4 3 3 4 9 18 2 2 4 3 2 3 2 3 2 3 3 3 1 3 3 2 1 2 3 6 6 8 6 6 4 8 8 9 8 8 8 8 9 8 8
15 7 4 3 4 13 17 4 3 2 1 3 4 2 3 3 1 4 4 3 3 4 4 3 2 2 7 7 9 7 7 8 9 6 3 6 6 6 8 9 7 7 6 6
5 4 3 2 17 4 2 4 4 4 4 5 4 6 3 3 3 2 2 4 4 4 4 6 3 1 4 7 9 8 8 7 8 7 6 6 6 5 5 7 7 6 7 7
9 6 6 2 3 3 5 5 5 6 6 4 5 4 3 2 2 2 3 3 4 3 4 3 4 3 8 7 8 7 6 6 8 8 8 8 7 6 6 6 6 7 7 6
8 4 5 3 1 5 9 9 4 4 3 4 4 3 3 2 2 3 3 4 2 4 3 3 2 7 5 6 5 7 7 7 8 9 8 9 10 10 9 8 6 6 7 6
4 5 6 1 3 2 3 2 4 2 1 4 3 2 2 1 2 1 2 2 1 3 3 3 3 6 6 6 5 5 6 7 8 7 7 8 8 9 8 6 5 6 7 6
5 3 4 1 2 1 1 0 2 3 1 2 3 3 2 3 2 3 1 2 2 3 2 2 4 6 6 5 5 6 6 5 6 5 6 6 7 8 7 6 6 6 6 7
4 7 4 1 3 2 3 3 2 3 2 2 3 3 4 3 1 3 2 0 1 2 2 3 5 5 5 6 6 6 5 6 6 5 6 6 6 7 6 6 6 6 6 7
5 4 3 3 4 3 2 3 3 3 1 2 1 4 1 2 3 3 3 1 2 3 3 3 5 6 6 6 6 6 6 6 7 7 7 6 5 5 6 8 6 7 7 6
Wind_Direction
303 312 315 322 340 10 38 39 48 314 356 36 87 2 296 298 300 329 311 293 288 350 331 345 17 18 31 10 336 348 359 331 233 218 351 197 170 187 197 218 189 230 266 276
301 312 315 309 321 95 86 37 308 339 69 53 359 330 294 279 313 330 325 317 2 317 311 334 355 347 352 7 12 3 346 21 195 146 107 46 50 251 209 126 141 223 241 209
301 311 309 299 284 150 90 44 27 331 50 165 2 336 309 317 291 282 292 322 0 343 322 283 311 335 324 329 11 343 271 8 313 237 75 21 246 198 285 199 189 191 239 268
294 305 306 302 231 159 94 26 311 180 324 199 300 297 279 308 351 322 350 86 11 339 307 318 352 331 333 330 9 0 356 160 281 291 257 224 248 224 216 232 192 216 154 230
285 302 304 307 158 142 82 135 143 176 290 285 323 288 269 339 325 294 311 360 334 329 276 301 309 317 321 281 327 346 2 11 223 253 247 263 252 246 236 258 260 260 272 286
280 300 298 304 162 136 145 131 314 111 287 294 317 246 291 335 352 289 267 340 324 317 287 308 281 262 257 257 287 317 311 303 331 77 218 291 241 243 207 157 105 335 282 19
271 297 290 294 176 175 127 182 114 160 245 213 218 257 292 296 296 282 288 298 271 270 314 294 262 245 244 242 241 226 280 336 295 292 316 203 18 336 162 119 75 34 64 31
268 291 285 288 275 199 125 147 147 165 232 228 261 250 264 285 286 273 268 277 252 314 303 327 326 114 212 239 233 221 208 223 284 327 293 290 160 37 83 2 124 49 12 22
261 285 276 273 284 250 165 173 118 171 177 229 246 248 230 266 270 299 260 302 308 335 330 334 313 337 329 35 140 9 181 223 263 243 279 332 76 251 357 162 166 47 15 17
259 280 273 276 283 275 173 162 157 145 220 252 186 196 215 209 254 267 308 330 333 333 356 289 303 306 322 325 327 94 113 139 215 230 293 291 12 314 311 216 79 46 52 43
256 274 273 278 286 292 199 151 179 166 207 257 206 211 219 258 197 264 326 346 38 325 303 296 298 280 338 286 346 287 19 167 218 191 229 261 353 311 105 105 70 62 50 47
253 268 269 273 277 281 252 175 181 177 208 274 288 279 250 224 233 143 285 257 355 282 350 1 309 309 314 339 329 26 41 27 320 256 33 49 32 75 63 85 84 51 59 48
250 265 269 269 274 276 261 151 131 139 174 260 233 237 240 232 221 206 244 251 209 203 179 335 308 284 283 324 341 312 152 44 250 263 80 69 84 72 72 73 80 66 54 50
250 264 269 267 268 271 227 174 153 142 132 254 272 178 247 218 191 198 212 215 68 25 23 328 266 277 231 269 281 298 12 321 318 88 90 91 54 49 68 71 73 72 62 49
252 261 269 266 274 267 247 149 177 163 163 251 285 295 247 214 172 191 191 207 220 253 281 247 245 269 270 253 274 56 20 355 356 9 332 71 66 61 63 70 68 59 64 58
253 263 269 273 270 260 97 28 174 172 155 228 280 291 303 34 142 156 171 182 165 188 203 224 238 273 256 300 296 66 64 51 13 346 49 90 97 77 72 82 80 73 68 56
249 259 266 268 260 170 153 200 180 165 112 168 267 280 263 123 115 113 132 167 182 189 212 235 260 257 98 317 249 92 77 54 29 23 163 77 52 83 83 81 81 78 73 61
250 255 265 260 179 129 100 339 140 134 117 197 235 264 315 184 144 145 159 162 175 192 229 241 236 238 193 211 90 64 28 84 43 27 44 84 91 71 57 57 72 74 66 64
254 261 238 189 103 140 164 156 156 107 148 185 183 207 235 155 157 142 155 152 166 214 217 225 218 178 235 51 99 67 34 32 350 44 57 63 63 55 49 50 52 65 64 66
258 248 159 171 194 142 106 41 146 172 216 220 225 177 244 166 135 174 158 177 186 190 201 121 216 112 90 79 80 69 50 35 13 186 38 30 49 52 51 55 53 54 67 69
176 159 142 176 163 93 133 150 169 155 209 210 222 194 168 184 174 230 209 178 179 209 172 189 189 167 108 98 79 60 50 52 57 68 58 51 42 38 60 59 56 62 65 70
158 123 107 127 141 137 156 171 170 196 211 185 189 192 202 148 126 183 190 205 180 192 117 140 167 75 102 97 84 72 63 60 57 51 55 51 58 52 67 70 66 64 70 70
129 122 134 186 200 152 175 175 172 192 187 174 179 153 136 131 194 236 226 174 176 101 63 86 62 121 105 101 91 75 64 69 70 65 62 63 62 53 64 74 61 77 73 64
109 136 116 186 171 219 185 129 138 137 153 134 112 101 124 101 174 348 240 9 201 102 163 136 109 109 95 84 80 88 67 67 73 66 67 71 70 66 60 63 69 79 79 69
81 74 90 96 160 71 244 360 93 34 333 107 114 79 64 29 89 12 299 67 79 23 90 113 108 104 102 94 90 91 88 77 72 72 80 81 83 85 78 61 73 84 83 82
73 50 105 114 88 35 48 17 80 21 12 71 52 116 74 56 67 55 53 311 130 125 97 113 105 90 92 98 98 99 103 102 101 98 102 100 91 93 90 81 71 68 76 77
56 49 41 76 82 94 74 9 360 317 80 102 124 72 73 98 70 87 11 97 117 139 104 83 105 118 119 114 110 115 120 116 109 108 106 105 108 109 99 87 84 90 89 88